CQ0XBF-11 Weather Reports


time (UTC)temp
C
wind
direction
speed
KPH
gust
KPH
rain 1hr
cm
rain 24hr
cm
rain mn
cm
humidity
%
barometer
mb
20180619233923 22 240 3.2 9.7 0.00 0.00 0.00 60 1010.8
20180619233722 22 227 8.0 9.7 0.00 0.00 0.00 60 1010.8
20180619233520 23 189 4.8 9.7 0.00 0.00 0.00 59 1010.8
20180619233318 23 243 4.8 9.7 0.00 0.00 0.00 59 1010.9
20180619233117 23 241 8.0 9.7 0.00 0.00 0.00 58 1010.9
20180619232915 23 208 1.6 9.7 0.00 0.00 0.00 58 1010.8
20180619232713 23 232 4.8 9.7 0.00 0.00 0.00 57 1010.8
20180619232512 23 243 4.8 9.7 0.00 0.00 0.00 57 1010.8
20180619232309 23 227 8.0 9.7 0.00 0.00 0.00 56 1010.8
20180619232108 23 234 0.0 3.2 0.00 0.00 0.00 56 1010.8
20180619231906 23 208 1.6 3.2 0.00 0.00 0.00 56 1010.8
20180619231705 23 199 1.6 1.6 0.00 0.00 0.00 56 1010.7
20180619231503 23 237 0.0 1.6 0.00 0.00 0.00 56 1010.7
20180619231302 23 205 0.0 1.6 0.00 0.00 0.00 57 1010.7
20180619231100 23 247 0.0 1.6 0.00 0.00 0.00 57 1010.8
20180619230859 23 80 0.0 1.6 0.00 0.00 0.00 56 1010.7
20180619230657 23 251 0.0 3.2 0.00 0.00 0.00 57 1010.7
20180619230456 23 230 0.0 3.2 0.00 0.00 0.00 57 1010.8
20180619230254 23 230 0.0 3.2 0.00 0.00 0.00 56 1010.7
20180619230052 23 286 0.0 4.8 0.00 0.00 0.00 56 1010.7
20180619225851 23 292 0.0 4.8 0.00 0.00 0.00 56 1010.8
20180619225650 23 303 1.6 6.4 0.00 0.00 0.00 56 1010.7
20180619225448 23 320 3.2 6.4 0.00 0.00 0.00 55 1010.7
20180619225246 23 317 3.2 6.4 0.00 0.00 0.00 55 1010.7
20180619225044 23 348 0.0 8.0 0.00 0.00 0.00 55 1010.6
20180619224843 23 59 1.6 8.0 0.00 0.00 0.00 55 1010.6
20180619224641 23 358 0.0 8.0 0.00 0.00 0.00 54 1010.7
20180619224440 23 337 1.6 8.0 0.00 0.00 0.00 54 1010.7
20180619224238 23 343 1.6 8.0 0.00 0.00 0.00 53 1010.7
20180619224037 23 323 0.0 4.8 0.00 0.00 0.00 53 1010.7
20180619223835 23 302 0.0 4.8 0.00 0.00 0.00 53 1010.6
20180619223634 23 298 0.0 8.0 0.00 0.00 0.00 53 1010.6
20180619223432 24 331 1.6 8.0 0.00 0.00 0.00 52 1010.6
20180619223231 24 323 1.6 6.4 0.00 0.00 0.00 52 1010.6
20180619223029 24 327 1.6 6.4 0.00 0.00 0.00 52 1010.5
20180619222828 24 292 6.4 6.4 0.00 0.00 0.00 52 1010.6
20180619222626 24 295 1.6 4.8 0.00 0.00 0.00 51 1010.6
20180619222424 24 324 3.2 4.8 0.00 0.00 0.00 51 1010.6
20180619222223 24 313 1.6 4.8 0.00 0.00 0.00 51 1010.6
20180619222021 24 236 0.0 4.8 0.00 0.00 0.00 51 1010.7
20180619221819 24 330 1.6 4.8 0.00 0.00 0.00 51 1010.6
20180619221618 24 347 0.0 8.0 0.00 0.00 0.00 51 1010.6
20180619221416 24 309 3.2 8.0 0.00 0.00 0.00 51 1010.5
20180619221216 25 319 6.4 6.4 0.00 0.00 0.00 51 1010.5
20180619221013 25 309 4.8 6.4 0.00 0.00 0.00 51 1010.5
20180619220812 25 275 1.6 6.4 0.00 0.00 0.00 50 1010.5
20180619220610 25 284 0.0 6.4 0.00 0.00 0.00 50 1010.4
20180619220409 25 317 3.2 6.4 0.00 0.00 0.00 50 1010.4
20180619220207 25 289 3.2 8.0 0.00 0.00 0.00 50 1010.4
20180619220006 25 355 1.6 8.0 0.00 0.00 0.00 50 1010.4
20180619215804 25 285 4.8 8.0 0.00 0.00 0.00 49 1010.4
20180619215603 25 293 0.0 6.4 0.00 0.00 0.00 49 1010.4
20180619215401 25 272 0.0 6.4 0.00 0.00 0.00 49 1010.4
20180619215159 25 327 0.0 4.8 0.00 0.00 0.00 48 1010.4
20180619214958 25 315 0.0 4.8 0.00 0.00 0.00 48 1010.4
20180619214756 25 309 0.0 4.8 0.00 0.00 0.00 48 1010.3
20180619214352 25 206 1.6 4.8 0.00 0.00 0.00 48 1010.3
20180619214150 26 330 3.2 6.4 0.00 0.00 0.00 48 1010.3
20180619213949 26 345 3.2 6.4 0.00 0.00 0.00 48 1010.3
20180619213747 26 282 0.0 6.4 0.00 0.00 0.00 48 1010.3
20180619213546 25 326 1.6 4.8 0.00 0.00 0.00 48 1010.3
20180619213344 26 327 3.2 4.8 0.00 0.00 0.00 47 1010.3
20180619213143 26 298 0.0 8.0 0.00 0.00 0.00 47 1010.4
20180619212941 26 348 3.2 8.0 0.00 0.00 0.00 47 1010.3
20180619212740 25 261 0.0 8.0 0.00 0.00 0.00 47 1010.3
20180619212538 26 262 0.0 6.4 0.00 0.00 0.00 47 1010.3
20180619212337 26 264 0.0 6.4 0.00 0.00 0.00 47 1010.3
20180619212135 26 315 0.0 8.0 0.00 0.00 0.00 47 1010.3
20180619211933 26 330 1.6 8.0 0.00 0.00 0.00 46 1010.2
20180619211732 26 97 0.0 6.4 0.00 0.00 0.00 46 1010.2
20180619211530 26 292 0.0 6.4 0.00 0.00 0.00 46 1010.2
20180619211329 26 334 3.2 6.4 0.00 0.00 0.00 45 1010.2
20180619211127 26 336 0.0 6.4 0.00 0.00 0.00 45 1010.2
20180619210926 26 9 3.2 6.4 0.00 0.00 0.00 45 1010.2
20180619210724 26 78 1.6 4.8 0.00 0.00 0.00 45 1010.2
20180619210522 26 350 1.6 4.8 0.00 0.00 0.00 44 1010.2
20180619210321 26 315 0.0 4.8 0.00 0.00 0.00 44 1010.2
20180619210119 26 215 0.0 9.7 0.00 0.00 0.00 44 1010.2
20180619205918 26 334 0.0 9.7 0.00 0.00 0.00 44 1010.1
20180619205716 26 251 0.0 3.2 0.00 0.00 0.00 43 1010.1
20180619205515 27 341 0.0 3.2 0.00 0.00 0.00 43 1010.1
20180619205313 26 306 0.0 3.2 0.00 0.00 0.00 43 1010.1
20180619205112 26 306 1.6 6.4 0.00 0.00 0.00 44 1010.1
20180619204910 26 296 1.6 6.4 0.00 0.00 0.00 44 1010.0
20180619204709 27 350 1.6 6.4 0.00 0.00 0.00 44 1010.0
20180619204507 27 320 0.0 6.4 0.00 0.00 0.00 44 1010.0
20180619204305 26 94 0.0 6.4 0.00 0.00 0.00 43 1010.0
20180619204104 27 292 0.0 8.0 0.00 0.00 0.00 43 1009.9
20180619203902 26 337 1.6 8.0 0.00 0.00 0.00 43 1009.9
20180619203700 26 14 0.0 6.4 0.00 0.00 0.00 43 1009.9
20180619203459 27 344 1.6 6.4 0.00 0.00 0.00 43 1009.9
20180619203257 27 265 3.2 6.4 0.00 0.00 0.00 43 1009.8
20180619203056 27 327 3.2 4.8 0.00 0.00 0.00 42 1009.9
20180619202854 27 316 3.2 4.8 0.00 0.00 0.00 42 1009.9
20180619202653 27 340 0.0 6.4 0.00 0.00 0.00 42 1009.8
20180619202451 27 261 1.6 6.4 0.00 0.00 0.00 41 1009.8
20180619202250 27 9 1.6 6.4 0.00 0.00 0.00 42 1009.7
20180619202048 27 334 0.0 6.4 0.00 0.00 0.00 42 1009.7
20180619201847 27 278 1.6 6.4 0.00 0.00 0.00 41 1009.7
20180619201645 27 330 3.2 9.7 0.00 0.00 0.00 41 1009.7
20180619201444 28 333 1.6 9.7 0.00 0.00 0.00 40 1009.8
20180619201242 28 320 1.6 9.7 0.00 0.00 0.00 40 1009.7
20180619201040 28 237 0.0 9.7 0.00 0.00 0.00 40 1009.7
20180619200839 28 315 4.8 9.7 0.00 0.00 0.00 39 1009.7
20180619200637 28 320 1.6 8.0 0.00 0.00 0.00 40 1009.7
20180619200435 28 257 4.8 8.0 0.00 0.00 0.00 39 1009.7
20180619200234 28 206 1.6 8.0 0.00 0.00 0.00 39 1009.6
20180619200032 28 347 1.6 8.0 0.00 0.00 0.00 40 1009.6
20180619195831 28 338 4.8 8.0 0.00 0.00 0.00 40 1009.7
20180619195629 28 299 4.8 6.4 0.00 0.00 0.00 40 1009.6
20180619195428 28 293 3.2 6.4 0.00 0.00 0.00 39 1009.7
20180619195226 28 281 1.6 8.0 0.00 0.00 0.00 39 1009.6
20180619195025 28 258 3.2 8.0 0.00 0.00 0.00 39 1009.7
20180619194823 28 315 3.2 8.0 0.00 0.00 0.00 39 1009.6
20180619194624 28 243 1.6 9.7 0.00 0.00 0.00 39 1009.7
20180619194420 29 105 1.6 9.7 0.00 0.00 0.00 38 1009.6
20180619194219 29 337 1.6 4.8 0.00 0.00 0.00 38 1009.6
20180619194017 30 282 1.6 4.8 0.00 0.00 0.00 37 1009.7
20180619193815 29 2 0.0 4.8 0.00 0.00 0.00 37 1009.7
20180619193614 30 164 0.0 8.0 0.00 0.00 0.00 37 1009.6
20180619193412 30 210 0.0 8.0 0.00 0.00 0.00 37 1009.6
20180619193211 30 303 4.8 8.0 0.00 0.00 0.00 36 1009.6
20180619193009 30 306 4.8 8.0 0.00 0.00 0.00 36 1009.6
20180619192807 30 216 1.6 8.0 0.00 0.00 0.00 35 1009.6
20180619192606 30 220 3.2 9.7 0.00 0.00 0.00 36 1009.6
20180619192404 30 262 1.6 9.7 0.00 0.00 0.00 36 1009.6
20180619192203 30 324 1.6 11.3 0.00 0.00 0.00 37 1009.5
20180619192001 30 182 3.2 11.3 0.00 0.00 0.00 37 1009.6
20180619191800 29 205 3.2 11.3 0.00 0.00 0.00 38 1009.6
20180619191558 29 324 1.6 12.9 0.00 0.00 0.00 38 1009.6
20180619191357 29 310 0.0 12.9 0.00 0.00 0.00 38 1009.6
20180619191155 29 320 9.7 12.9 0.00 0.00 0.00 37 1009.5
20180619190954 30 296 4.8 12.9 0.00 0.00 0.00 36 1009.4
20180619190751 30 241 1.6 12.9 0.00 0.00 0.00 36 1009.3
20180619190550 30 315 8.0 14.5 0.00 0.00 0.00 36 1009.3
20180619190348 30 315 12.9 14.5 0.00 0.00 0.00 36 1009.3
20180619190146 30 305 4.8 14.5 0.00 0.00 0.00 36 1009.3
20180619185945 30 313 8.0 14.5 0.00 0.00 0.00 36 1009.3
20180619185743 30 302 3.2 14.5 0.00 0.00 0.00 35 1009.3
20180619185541 31 348 4.8 12.9 0.00 0.00 0.00 33 1009.2
20180619185340 31 291 4.8 12.9 0.00 0.00 0.00 33 1009.2
20180619185138 31 226 4.8 16.1 0.00 0.00 0.00 34 1009.1
20180619184937 31 315 8.0 16.1 0.00 0.00 0.00 33 1009.0
20180619184735 31 291 4.8 16.1 0.00 0.00 0.00 32 1009.0
20180619184534 31 261 11.3 16.1 0.00 0.00 0.00 32 1008.9
20180619184332 31 292 6.4 16.1 0.00 0.00 0.00 32 1009.0
20180619184131 31 281 4.8 14.5 0.00 0.00 0.00 32 1009.0
20180619183929 31 313 8.0 14.5 0.00 0.00 0.00 33 1009.0
20180619183728 32 313 6.4 11.3 0.00 0.00 0.00 32 1009.0
20180619183526 32 331 4.8 11.3 0.00 0.00 0.00 31 1009.0
20180619183325 32 274 4.8 11.3 0.00 0.00 0.00 31 1009.0
20180619183123 32 119 3.2 14.5 0.00 0.00 0.00 30 1009.1
20180619182921 32 331 3.2 14.5 0.00 0.00 0.00 30 1009.0
20180619182720 32 123 1.6 17.7 0.00 0.00 0.00 30 1008.9
20180619182518 32 302 11.3 17.7 0.00 0.00 0.00 31 1009.0
20180619182317 32 74 1.6 17.7 0.00 0.00 0.00 30 1008.9
20180619182115 33 345 8.0 14.5 0.00 0.00 0.00 29 1008.8
20180619181913 33 267 1.6 14.5 0.00 0.00 0.00 27 1008.7
20180619181712 34 306 6.4 12.9 0.00 0.00 0.00 27 1008.6
20180619181510 35 293 4.8 12.9 0.00 0.00 0.00 26 1008.6
20180619181309 35 286 3.2 12.9 0.00 0.00 0.00 26 1008.6
20180619181107 36 209 1.6 12.9 0.00 0.00 0.00 25 1008.6
20180619180906 36 251 6.4 12.9 0.00 0.00 0.00 24 1008.5
20180619180704 36 312 3.2 11.3 0.00 0.00 0.00 23 1008.6
20180619180503 37 14 6.4 11.3 0.00 0.00 0.00 23 1008.7
20180619180301 37 306 1.6 11.3 0.00 0.00 0.00 22 1008.7
20180619180100 37 30 4.8 3.2 0.00 0.00 0.00 20 1008.7
20180619175858 38 250 0.0 3.2 0.00 0.00 0.00 15 1008.7
20180619175657 38 113 0.0 6.4 0.00 0.00 0.00 13 1008.7
20180619175455 38 113 0.0 6.4 0.00 0.00 0.00 13 1008.6
20180619175253 38 113 0.0 6.4 0.00 0.00 0.00 12 1008.5
20180619174850 38 180 3.2 9.7 0.00 0.00 0.00 13 1008.5
20180619174648 38 137 6.4 11.3 0.00 0.00 0.00 13 1008.5
20180619174447 38 219 4.8 11.3 0.00 0.00 0.00 13 1008.5
20180619174246 38 187 4.8 11.3 0.00 0.00 0.00 14 1008.5
20180619174044 38 185 4.8 9.7 0.00 0.00 0.00 13 1008.5
20180619173842 38 185 4.8 9.7 0.00 0.00 0.00 13 1008.5
20180619173641 38 139 4.8 8.0 0.00 0.00 0.00 13 1008.5
20180619173439 38 195 4.8 8.0 0.00 0.00 0.00 13 1008.5
20180619173238 38 150 4.8 8.0 0.00 0.00 0.00 13 1008.5
20180619173036 38 139 0.0 11.3 0.00 0.00 0.00 14 1008.5
20180619172835 38 158 0.0 11.3 0.00 0.00 0.00 14 1008.5
20180619172633 38 188 1.6 11.3 0.00 0.00 0.00 13 1008.5
20180619172432 38 154 3.2 11.3 0.00 0.00 0.00 13 1008.6
20180619172230 38 94 6.4 8.0 0.00 0.00 0.00 12 1008.6
20180619172028 38 153 3.2 8.0 0.00 0.00 0.00 13 1008.5
20180619171827 39 139 9.7 8.0 0.00 0.00 0.00 12 1008.6
20180619171625 39 157 1.6 9.7 0.00 0.00 0.00 13 1008.6
20180619171423 39 98 0.0 9.7 0.00 0.00 0.00 12 1008.6
20180619171222 39 60 0.0 4.8 0.00 0.00 0.00 11 1008.6
20180619171020 39 60 0.0 4.8 0.00 0.00 0.00 11 1008.6
20180619170819 40 157 6.4 4.8 0.00 0.00 0.00 12 1008.7
20180619170617 39 158 0.0 9.7 0.00 0.00 0.00 12 1008.7
20180619170416 39 181 1.6 9.7 0.00 0.00 0.00 12 1008.7
20180619170214 39 237 0.0 8.0 0.00 0.00 0.00 12 1008.8
20180619170013 39 227 4.8 8.0 0.00 0.00 0.00 12 1008.7
20180619165811 39 234 4.8 8.0 0.00 0.00 0.00 12 1008.8
20180619165611 38 232 0.0 11.3 0.00 0.00 0.00 11 1008.8
20180619165408 39 232 0.0 11.3 0.00 0.00 0.00 12 1008.9
20180619165207 38 170 6.4 12.9 0.00 0.00 0.00 13 1008.8
20180619165005 38 177 3.2 12.9 0.00 0.00 0.00 13 1008.8
20180619164803 39 108 8.0 12.9 0.00 0.00 0.00 12 1008.9
20180619164602 39 137 1.6 11.3 0.00 0.00 0.00 12 1008.9
20180619164400 40 142 8.0 11.3 0.00 0.00 0.00 12 1008.9
20180619164159 40 185 3.2 9.7 0.00 0.00 0.00 12 1009.0
20180619163957 40 150 4.8 9.7 0.00 0.00 0.00 12 1009.0
20180619163755 40 130 6.4 9.7 0.00 0.00 0.00 12 1009.0
20180619163554 40 94 3.2 11.3 0.00 0.00 0.00 12 1009.0
20180619163353 40 189 8.0 11.3 0.00 0.00 0.00 12 1009.0
20180619163151 40 149 4.8 12.9 0.00 0.00 0.00 12 1009.1
20180619162949 40 205 8.0 12.9 0.00 0.00 0.00 12 1009.0
20180619162748 40 127 0.0 12.9 0.00 0.00 0.00 12 1009.1
20180619162546 40 150 1.6 11.3 0.00 0.00 0.00 11 1009.2
20180619162345 40 108 3.2 11.3 0.00 0.00 0.00 11 1009.2
20180619162143 40 175 8.0 1.6 0.00 0.00 0.00 12 1009.2
20180619161942 40 191 0.0 1.6 0.00 0.00 0.00 12 1009.3
20180619161740 40 133 0.0 1.6 0.00 0.00 0.00 11 1009.2
20180619161539 40 84 0.0 11.3 0.00 0.00 0.00 12 1009.3
20180619161337 40 84 0.0 11.3 0.00 0.00 0.00 11 1009.2
20180619161135 40 74 1.6 6.4 0.00 0.00 0.00 11 1009.3
20180619160934 40 226 4.8 6.4 0.00 0.00 0.00 12 1009.3
20180619160732 39 102 0.0 11.3 0.00 0.00 0.00 11 1009.3
20180619160530 39 102 0.0 11.3 0.00 0.00 0.00 12 1009.3
20180619160329 39 163 3.2 11.3 0.00 0.00 0.00 13 1009.3
20180619160127 39 164 6.4 14.5 0.00 0.00 0.00 13 1009.4
20180619155926 39 177 4.8 14.5 0.00 0.00 0.00 12 1009.4
20180619155724 39 180 11.3 11.3 0.00 0.00 0.00 12 1009.4
20180619155523 39 135 4.8 11.3 0.00 0.00 0.00 13 1009.4
20180619155321 39 178 6.4 11.3 0.00 0.00 0.00 13 1009.4
20180619155120 39 123 4.8 12.9 0.00 0.00 0.00 12 1009.4
20180619154918 39 139 4.8 12.9 0.00 0.00 0.00 13 1009.4
20180619154717 40 165 3.2 11.3 0.00 0.00 0.00 13 1009.4
20180619154515 40 210 11.3 11.3 0.00 0.00 0.00 13 1009.5
20180619154314 40 236 3.2 11.3 0.00 0.00 0.00 12 1009.5
20180619154112 40 219 11.3 3.2 0.00 0.00 0.00 11 1009.5
20180619153910 40 313 0.0 3.2 0.00 0.00 0.00 12 1009.5
20180619153709 40 313 0.0 1.6 0.00 0.00 0.00 13 1009.6
20180619153507 40 337 0.0 1.6 0.00 0.00 0.00 13 1009.5
20180619153306 39 101 0.0 1.6 0.00 0.00 0.00 13 1009.5
20180619153104 40 205 0.0 11.3 0.00 0.00 0.00 13 1009.6
20180619152902 38 303 0.0 11.3 0.00 0.00 0.00 14 1009.6
20180619152701 39 303 0.0 14.5 0.00 0.00 0.00 13 1009.7
20180619152459 39 140 3.2 14.5 0.00 0.00 0.00 12 1009.7
20180619152258 39 185 8.0 14.5 0.00 0.00 0.00 13 1009.7
20180619152056 39 189 9.7 12.9 0.00 0.00 0.00 13 1009.7
20180619151855 39 237 8.0 12.9 0.00 0.00 0.00 13 1009.7
20180619151653 39 123 9.7 8.0 0.00 0.00 0.00 14 1009.7
20180619151452 39 223 8.0 8.0 0.00 0.00 0.00 14 1009.7
20180619151250 39 205 1.6 8.0 0.00 0.00 0.00 13 1009.8
20180619151049 39 261 3.2 9.7 0.00 0.00 0.00 13 1009.8
20180619150847 39 219 1.6 9.7 0.00 0.00 0.00 13 1009.8
20180619150645 39 225 1.6 11.3 0.00 0.00 0.00 12 1009.8
20180619150444 39 241 4.8 11.3 0.00 0.00 0.00 13 1009.8
20180619150242 38 250 3.2 11.3 0.00 0.00 0.00 13 1009.8
20180619150041 38 118 6.4 12.9 0.00 0.00 0.00 14 1009.8
20180619145839 38 123 4.8 12.9 0.00 0.00 0.00 14 1009.9
20180619145637 38 150 4.8 17.7 0.00 0.00 0.00 13 1009.9
20180619145436 38 206 4.8 17.7 0.00 0.00 0.00 14 1009.8
20180619145234 38 187 8.0 17.7 0.00 0.00 0.00 14 1009.9
20180619145033 38 171 12.9 17.7 0.00 0.00 0.00 14 1009.9
20180619144831 38 188 6.4 17.7 0.00 0.00 0.00 14 1010.0
20180619144630 38 194 14.5 16.1 0.00 0.00 0.00 14 1009.9
20180619144428 38 208 12.9 16.1 0.00 0.00 0.00 14 1009.8
20180619144227 38 181 12.9 8.0 0.00 0.00 0.00 15 1009.9
20180619144025 39 115 11.3 8.0 0.00 0.00 0.00 13 1010.0
20180619143824 38 175 3.2 8.0 0.00 0.00 0.00 14 1010.0
20180619143622 38 213 1.6 12.9 0.00 0.00 0.00 14 1010.1
20180619143421 38 196 1.6 12.9 0.00 0.00 0.00 14 1010.0
20180619143219 38 101 0.0 17.7 0.00 0.00 0.00 14 1010.0
20180619143017 38 118 4.8 17.7 0.00 0.00 0.00 14 1010.1
20180619142816 38 177 4.8 17.7 0.00 0.00 0.00 13 1010.1
20180619142614 38 184 12.9 14.5 0.00 0.00 0.00 14 1010.0
20180619142412 38 165 3.2 14.5 0.00 0.00 0.00 14 1010.1
20180619142211 38 153 3.2 14.5 0.00 0.00 0.00 14 1010.1
20180619142009 38 137 3.2 14.5 0.00 0.00 0.00 14 1010.2
20180619141808 38 147 6.4 14.5 0.00 0.00 0.00 14 1010.1
20180619141606 38 146 6.4 9.7 0.00 0.00 0.00 13 1010.1
20180619141405 39 135 11.3 9.7 0.00 0.00 0.00 13 1010.1
20180619141203 38 192 8.0 14.5 0.00 0.00 0.00 14 1010.1
20180619141002 38 174 3.2 14.5 0.00 0.00 0.00 14 1010.1
20180619140800 38 111 1.6 14.5 0.00 0.00 0.00 14 1010.2
20180619140559 38 158 8.0 14.5 0.00 0.00 0.00 15 1010.2
20180619140357 38 180 4.8 14.5 0.00 0.00 0.00 14 1010.2
20180619140156 38 168 6.4 14.5 0.00 0.00 0.00 15 1010.2
20180619135954 38 147 1.6 14.5 0.00 0.00 0.00 14 1010.2
20180619135753 38 185 4.8 14.5 0.00 0.00 0.00 14 1010.2
20180619135349 38 160 3.2 14.5 0.00 0.00 0.00 15 1010.3
20180619135148 38 158 6.4 16.1 0.00 0.00 0.00 15 1010.3
20180619134946 38 196 11.3 16.1 0.00 0.00 0.00 15 1010.3
20180619134744 37 198 12.9 16.1 0.00 0.00 0.00 15 1010.4
20180619134543 37 185 9.7 16.1 0.00 0.00 0.00 14 1010.3
20180619134341 38 208 8.0 16.1 0.00 0.00 0.00 14 1010.4
20180619134140 38 195 12.9 17.7 0.00 0.00 0.00 15 1010.4
20180619133938 37 164 9.7 17.7 0.00 0.00 0.00 14 1010.4
20180619133737 37 165 6.4 17.7 0.00 0.00 0.00 15 1010.4
20180619133535 37 132 8.0 9.7 0.00 0.00 0.00 15 1010.4
20180619133334 37 156 6.4 9.7 0.00 0.00 0.00 16 1010.4
20180619133132 37 136 4.8 14.5 0.00 0.00 0.00 16 1010.4
20180619132931 37 153 4.8 14.5 0.00 0.00 0.00 15 1010.5
20180619132729 37 98 11.3 16.1 0.00 0.00 0.00 16 1010.4
20180619132528 37 195 8.0 16.1 0.00 0.00 0.00 16 1010.4
20180619132326 37 216 8.0 16.1 0.00 0.00 0.00 16 1010.5
20180619132124 37 250 1.6 17.7 0.00 0.00 0.00 16 1010.5
20180619131923 36 99 4.8 17.7 0.00 0.00 0.00 16 1010.5
20180619131721 36 99 6.4 22.5 0.00 0.00 0.00 15 1010.5
20180619131519 36 49 1.6 22.5 0.00 0.00 0.00 17 1010.6
20180619131318 36 174 12.9 22.5 0.00 0.00 0.00 16 1010.5
20180619131116 36 184 11.3 19.3 0.00 0.00 0.00 16 1010.5
20180619130915 36 151 12.9 19.3 0.00 0.00 0.00 16 1010.5
20180619130713 36 182 6.4 16.1 0.00 0.00 0.00 16 1010.5
20180619130512 36 188 6.4 16.1 0.00 0.00 0.00 17 1010.5
20180619130310 36 201 9.7 16.1 0.00 0.00 0.00 16 1010.7
20180619130109 36 191 9.7 17.7 0.00 0.00 0.00 17 1010.7
20180619125907 36 118 3.2 17.7 0.00 0.00 0.00 16 1010.7
20180619125706 36 119 12.9 20.9 0.00 0.00 0.00 17 1010.8
20180619125504 36 188 6.4 20.9 0.00 0.00 0.00 17 1010.8
20180619125303 36 170 9.7 20.9 0.00 0.00 0.00 16 1010.8
20180619125101 36 170 14.5 16.1 0.00 0.00 0.00 17 1010.8
20180619124859 36 217 8.0 16.1 0.00 0.00 0.00 16 1010.9
20180619124658 36 158 6.4 14.5 0.00 0.00 0.00 18 1010.8
20180619124456 36 130 0.0 14.5 0.00 0.00 0.00 17 1010.9
20180619124254 35 182 3.2 14.5 0.00 0.00 0.00 17 1010.9
20180619124053 35 92 3.2 17.7 0.00 0.00 0.00 17 1010.9
20180619123851 35 120 3.2 17.7 0.00 0.00 0.00 18 1010.9
20180619123650 35 147 6.4 19.3 0.00 0.00 0.00 17 1011.0
20180619123448 35 130 16.1 19.3 0.00 0.00 0.00 18 1011.0
20180619123247 35 168 1.6 19.3 0.00 0.00 0.00 18 1011.0
20180619123045 35 23 1.6 19.3 0.00 0.00 0.00 18 1011.0
20180619122844 35 115 16.1 19.3 0.00 0.00 0.00 17 1011.1
20180619122642 35 116 11.3 9.7 0.00 0.00 0.00 18 1011.1
20180619122441 35 29 0.0 9.7 0.00 0.00 0.00 19 1011.1
20180619122239 35 109 4.8 9.7 0.00 0.00 0.00 18 1011.2
20180619122038 35 35 3.2 14.5 0.00 0.00 0.00 19 1011.2
20180619121836 35 60 0.0 14.5 0.00 0.00 0.00 17 1011.2
20180619121634 35 210 4.8 17.7 0.00 0.00 0.00 20 1011.3
20180619121433 34 149 4.8 17.7 0.00 0.00 0.00 19 1011.3
20180619121231 34 129 4.8 27.4 0.00 0.00 0.00 20 1011.4
20180619121030 34 132 3.2 27.4 0.00 0.00 0.00 19 1011.3
20180619120828 34 140 6.4 27.4 0.00 0.00 0.00 20 1011.3
20180619120627 35 144 6.4 22.5 0.00 0.00 0.00 19 1011.2
20180619120425 35 175 8.0 22.5 0.00 0.00 0.00 19 1011.2
20180619120223 35 151 16.1 19.3 0.00 0.00 0.00 18 1011.2
20180619120022 35 192 11.3 19.3 0.00 0.00 0.00 19 1011.3
20180619115820 34 181 1.6 19.3 0.00 0.00 0.00 19 1011.3
20180619115619 34 201 0.0 17.7 0.00 0.00 0.00 20 1011.3
20180619115417 34 212 9.7 17.7 0.00 0.00 0.00 19 1011.3
20180619115216 34 195 12.9 17.7 0.00 0.00 0.00 20 1011.3
20180619115014 34 195 11.3 17.7 0.00 0.00 0.00 19 1011.3
20180619114813 33 90 4.8 17.7 0.00 0.00 0.00 20 1011.4
20180619114611 33 150 9.7 19.3 0.00 0.00 0.00 20 1011.4
20180619114410 33 163 4.8 19.3 0.00 0.00 0.00 18 1011.4
20180619114208 33 203 11.3 16.1 0.00 0.00 0.00 20 1011.3
20180619114006 34 230 6.4 16.1 0.00 0.00 0.00 20 1011.4
20180619113805 33 209 6.4 16.1 0.00 0.00 0.00 21 1011.5
20180619113603 33 208 8.0 14.5 0.00 0.00 0.00 21 1011.5
20180619113401 33 127 9.7 14.5 0.00 0.00 0.00 21 1011.6
20180619113200 33 185 11.3 22.5 0.00 0.00 0.00 21 1011.6
20180619112958 33 135 4.8 22.5 0.00 0.00 0.00 21 1011.6
20180619112757 33 203 9.7 22.5 0.00 0.00 0.00 19 1011.6
20180619112555 34 171 19.3 16.1 0.00 0.00 0.00 21 1011.7
20180619112354 33 149 6.4 16.1 0.00 0.00 0.00 21 1011.7
20180619112152 33 178 9.7 11.3 0.00 0.00 0.00 21 1011.6
20180619111951 33 194 6.4 11.3 0.00 0.00 0.00 21 1011.7
20180619111749 33 199 8.0 11.3 0.00 0.00 0.00 23 1011.7
20180619111548 33 127 6.4 14.5 0.00 0.00 0.00 24 1011.7
20180619111346 32 158 6.4 14.5 0.00 0.00 0.00 23 1011.7
20180619111145 32 147 4.8 17.7 0.00 0.00 0.00 23 1011.7
20180619110943 32 130 4.8 17.7 0.00 0.00 0.00 24 1011.8
20180619110741 32 187 9.7 17.7 0.00 0.00 0.00 25 1011.7
20180619110540 32 310 0.0 17.7 0.00 0.00 0.00 23 1011.8
20180619110338 32 126 9.7 17.7 0.00 0.00 0.00 23 1011.8
20180619110137 32 106 14.5 12.9 0.00 0.00 0.00 22 1011.8
20180619105935 33 116 4.8 12.9 0.00 0.00 0.00 23 1011.8
20180619105733 33 113 0.0 14.5 0.00 0.00 0.00 23 1011.7
20180619105532 32 156 3.2 14.5 0.00 0.00 0.00 23 1011.7
20180619105330 32 187 9.7 14.5 0.00 0.00 0.00 24 1011.7
20180619105129 32 113 4.8 12.9 0.00 0.00 0.00 24 1011.7
20180619104927 32 213 1.6 12.9 0.00 0.00 0.00 24 1011.8
20180619104726 32 220 1.6 14.5 0.00 0.00 0.00 23 1011.8
20180619104524 32 244 1.6 14.5 0.00 0.00 0.00 24 1011.8
20180619104323 32 172 6.4 14.5 0.00 0.00 0.00 25 1011.8
20180619104121 32 215 4.8 17.7 0.00 0.00 0.00 23 1011.9
20180619103920 32 185 8.0 17.7 0.00 0.00 0.00 25 1011.9
20180619103718 32 172 8.0 14.5 0.00 0.00 0.00 24 1011.9
20180619103517 32 163 14.5 14.5 0.00 0.00 0.00 24 1011.9
20180619103315 32 118 6.4 14.5 0.00 0.00 0.00 26 1011.9
20180619103113 32 170 4.8 12.9 0.00 0.00 0.00 25 1012.0
20180619102912 32 168 11.3 12.9 0.00 0.00 0.00 25 1012.0
20180619102710 31 167 6.4 17.7 0.00 0.00 0.00 25 1012.0
20180619102508 31 192 6.4 17.7 0.00 0.00 0.00 26 1012.0
20180619102307 31 181 6.4 17.7 0.00 0.00 0.00 26 1012.1
20180619102105 31 149 6.4 9.7 0.00 0.00 0.00 25 1012.0
20180619101904 31 153 11.3 9.7 0.00 0.00 0.00 27 1012.1
20180619101702 31 165 4.8 16.1 0.00 0.00 0.00 26 1012.1
20180619101501 31 174 6.4 16.1 0.00 0.00 0.00 28 1012.1
20180619101259 31 230 3.2 16.1 0.00 0.00 0.00 28 1012.1
20180619101058 30 161 4.8 16.1 0.00 0.00 0.00 28 1012.1
20180619100856 30 203 4.8 16.1 0.00 0.00 0.00 29 1012.1
20180619100655 30 153 11.3 19.3 0.00 0.00 0.00 28 1012.0
20180619100453 30 175 9.7 19.3 0.00 0.00 0.00 28 1012.1
20180619100252 30 158 4.8 19.3 0.00 0.00 0.00 28 1012.1
20180619100050 30 171 12.9 24.1 0.00 0.00 0.00 28 1012.1
20180619095848 30 146 8.0 24.1 0.00 0.00 0.00 29 1012.1
20180619095647 30 178 9.7 20.9 0.00 0.00 0.00 30 1012.2
20180619095445 29 151 11.3 20.9 0.00 0.00 0.00 29 1012.2
20180619095243 29 180 11.3 20.9 0.00 0.00 0.00 29 1012.2
20180619095042 29 185 4.8 17.7 0.00 0.00 0.00 30 1012.3
20180619094841 29 174 6.4 17.7 0.00 0.00 0.00 30 1012.2
20180619094641 29 181 6.4 16.1 0.00 0.00 0.00 30 1012.3
20180619094437 29 126 9.7 16.1 0.00 0.00 0.00 29 1012.2
20180619094236 29 126 11.3 19.3 0.00 0.00 0.00 30 1012.3
20180619094034 29 151 12.9 19.3 0.00 0.00 0.00 29 1012.3
20180619093833 29 127 8.0 19.3 0.00 0.00 0.00 30 1012.3
20180619093635 28 140 6.4 20.9 0.00 0.00 0.00 31 1012.3
20180619093430 28 126 8.0 20.9 0.00 0.00 0.00 31 1012.3
20180619093228 28 137 9.7 19.3 0.00 0.00 0.00 31 1012.2
20180619093027 29 127 12.9 19.3 0.00 0.00 0.00 31 1012.2
20180619092825 28 94 8.0 19.3 0.00 0.00 0.00 32 1012.3
20180619092623 28 160 8.0 20.9 0.00 0.00 0.00 32 1012.4
20180619092422 28 98 4.8 20.9 0.00 0.00 0.00 32 1012.3
20180619092221 28 160 11.3 27.4 0.00 0.00 0.00 31 1012.3
20180619091817 28 174 11.3 27.4 0.00 0.00 0.00 30 1012.3
20180619091414 28 163 12.9 14.5 0.00 0.00 0.00 31 1012.3
20180619091212 28 201 6.4 16.1 0.00 0.00 0.00 31 1012.3
20180619091011 27 127 4.8 16.1 0.00 0.00 0.00 31 1012.4
20180619090809 27 139 4.8 16.1 0.00 0.00 0.00 32 1012.3
20180619090608 27 129 6.4 14.5 0.00 0.00 0.00 33 1012.4
20180619090406 27 136 4.8 14.5 0.00 0.00 0.00 33 1012.4
20180619090205 27 181 4.8 12.9 0.00 0.00 0.00 34 1012.4
20180619090003 27 174 6.4 12.9 0.00 0.00 0.00 33 1012.4
20180619085802 27 149 4.8 12.9 0.00 0.00 0.00 34 1012.3
20180619085600 27 106 9.7 14.5 0.00 0.00 0.00 33 1012.4
20180619085359 27 123 9.7 14.5 0.00 0.00 0.00 34 1012.4
20180619085157 27 87 8.0 16.1 0.00 0.00 0.00 34 1012.4
20180619084955 26 37 1.6 16.1 0.00 0.00 0.00 34 1012.4
20180619084754 26 126 6.4 16.1 0.00 0.00 0.00 35 1012.4
20180619084552 26 132 12.9 16.1 0.00 0.00 0.00 34 1012.5
20180619084350 26 168 6.4 16.1 0.00 0.00 0.00 35 1012.5
20180619084149 26 111 6.4 16.1 0.00 0.00 0.00 35 1012.4
20180619083947 26 168 6.4 16.1 0.00 0.00 0.00 34 1012.4
20180619083746 26 104 4.8 16.1 0.00 0.00 0.00 35 1012.5
20180619083544 26 149 6.4 16.1 0.00 0.00 0.00 34 1012.5
20180619083343 26 161 11.3 16.1 0.00 0.00 0.00 36 1012.5
20180619083141 26 126 8.0 16.1 0.00 0.00 0.00 35 1012.5
20180619082940 26 143 11.3 16.1 0.00 0.00 0.00 35 1012.5
20180619082738 26 126 6.4 16.1 0.00 0.00 0.00 35 1012.5
20180619082537 26 150 11.3 19.3 0.00 0.00 0.00 35 1012.5
20180619082335 26 195 1.6 19.3 0.00 0.00 0.00 35 1012.5
20180619082134 26 94 4.8 20.9 0.00 0.00 0.00 35 1012.5
20180619081932 26 154 6.4 20.9 0.00 0.00 0.00 36 1012.6
20180619081730 26 75 4.8 20.9 0.00 0.00 0.00 36 1012.5
20180619081530 25 153 8.0 20.9 0.00 0.00 0.00 35 1012.5
20180619081327 25 184 1.6 20.9 0.00 0.00 0.00 35 1012.5
20180619081126 26 97 16.1 17.7 0.00 0.00 0.00 34 1012.5
20180619080924 26 140 6.4 17.7 0.00 0.00 0.00 35 1012.5
20180619080722 26 167 9.7 19.3 0.00 0.00 0.00 35 1012.6
20180619080521 26 116 6.4 19.3 0.00 0.00 0.00 35 1012.6
20180619080319 26 142 4.8 19.3 0.00 0.00 0.00 34 1012.5
20180619080118 26 147 14.5 14.5 0.00 0.00 0.00 36 1012.6
20180619075916 26 92 3.2 14.5 0.00 0.00 0.00 36 1012.6
20180619075715 25 102 8.0 17.7 0.00 0.00 0.00 36 1012.6
20180619075513 25 112 9.7 17.7 0.00 0.00 0.00 35 1012.6
20180619075312 25 118 1.6 17.7 0.00 0.00 0.00 36 1012.6
20180619075110 25 30 1.6 17.7 0.00 0.00 0.00 36 1012.5
20180619074909 25 125 11.3 17.7 0.00 0.00 0.00 36 1012.7
20180619074707 25 142 4.8 12.9 0.00 0.00 0.00 36 1012.6
20180619074506 25 90 8.0 12.9 0.00 0.00 0.00 36 1012.6
20180619074304 25 78 3.2 12.9 0.00 0.00 0.00 35 1012.6
20180619074102 26 126 6.4 14.5 0.00 0.00 0.00 36 1012.6
20180619073901 25 73 4.8 14.5 0.00 0.00 0.00 36 1012.6
20180619073659 25 109 3.2 14.5 0.00 0.00 0.00 36 1012.7
20180619073457 25 122 1.6 14.5 0.00 0.00 0.00 37 1012.7
20180619073256 25 95 14.5 14.5 0.00 0.00 0.00 35 1012.7
20180619073054 25 143 3.2 11.3 0.00 0.00 0.00 37 1012.7
20180619072853 25 123 8.0 11.3 0.00 0.00 0.00 37 1012.6
20180619072651 25 123 3.2 11.3 0.00 0.00 0.00 37 1012.7
20180619072450 25 116 8.0 11.3 0.00 0.00 0.00 36 1012.6
20180619072248 25 143 6.4 11.3 0.00 0.00 0.00 36 1012.6
20180619072047 25 115 4.8 9.7 0.00 0.00 0.00 36 1012.6
20180619071845 25 63 6.4 9.7 0.00 0.00 0.00 35 1012.6
20180619071644 25 36 3.2 19.3 0.00 0.00 0.00 35 1012.5
20180619071442 25 133 4.8 19.3 0.00 0.00 0.00 36 1012.5
20180619071240 25 123 9.7 19.3 0.00 0.00 0.00 34 1012.5
20180619071039 25 108 4.8 11.3 0.00 0.00 0.00 36 1012.6
20180619070839 25 70 3.2 11.3 0.00 0.00 0.00 37 1012.5
20180619070636 25 102 4.8 8.0 0.00 0.00 0.00 37 1012.5
20180619070434 25 125 6.4 8.0 0.00 0.00 0.00 37 1012.6
20180619070232 25 153 4.8 8.0 0.00 0.00 0.00 37 1012.5
20180619070031 25 125 4.8 8.0 0.00 0.00 0.00 37 1012.5
20180619065829 25 63 0.0 8.0 0.00 0.00 0.00 38 1012.5
20180619065628 24 171 1.6 9.7 0.00 0.00 0.00 39 1012.5
20180619065426 24 113 4.8 9.7 0.00 0.00 0.00 39 1012.5
20180619065225 23 74 4.8 8.0 0.00 0.00 0.00 38 1012.5
20180619065023 23 80 0.0 8.0 0.00 0.00 0.00 39 1012.5
20180619064822 23 123 4.8 8.0 0.00 0.00 0.00 41 1012.5
20180619064620 23 123 1.6 8.0 0.00 0.00 0.00 42 1012.4
20180619064419 23 119 3.2 8.0 0.00 0.00 0.00 42 1012.4
20180619064217 23 97 4.8 4.8 0.00 0.00 0.00 44 1012.4
20180619064016 22 144 1.6 4.8 0.00 0.00 0.00 45 1012.4
20180619063814 22 12 0.0 4.8 0.00 0.00 0.00 45 1012.3
20180619063612 22 143 1.6 9.7 0.00 0.00 0.00 45 1012.3
20180619063411 22 153 0.0 9.7 0.00 0.00 0.00 45 1012.3
20180619063209 22 120 0.0 8.0 0.00 0.00 0.00 45 1012.3
20180619063008 22 94 3.2 8.0 0.00 0.00 0.00 45 1012.2
20180619062806 22 78 1.6 8.0 0.00 0.00 0.00 45 1012.2
20180619062604 22 144 4.8 6.4 0.00 0.00 0.00 45 1012.2
20180619062403 22 104 3.2 6.4 0.00 0.00 0.00 45 1012.1
20180619062201 22 130 1.6 8.0 0.00 0.00 0.00 45 1012.1
20180619062000 22 84 3.2 8.0 0.00 0.00 0.00 44 1012.1
20180619061758 22 98 1.6 8.0 0.00 0.00 0.00 44 1012.0
20180619061557 22 98 1.6 9.7 0.00 0.00 0.00 45 1012.0
20180619061355 22 139 3.2 9.7 0.00 0.00 0.00 45 1012.1
20180619061154 22 161 1.6 11.3 0.00 0.00 0.00 45 1012.1
20180619060952 21 115 0.0 11.3 0.00 0.00 0.00 46 1012.0
20180619060751 21 137 8.0 11.3 0.00 0.00 0.00 46 1012.0
20180619060549 21 136 0.0 4.8 0.00 0.00 0.00 47 1012.0
20180619060359 21 84 0.0 4.8 0.00 0.00 0.00 47 1012.0
20180619060146 21 116 0.0 9.7 0.00 0.00 0.00 48 1012.0
20180619055944 21 113 1.6 9.7 0.00 0.00 0.00 49 1012.0
20180619055743 21 130 3.2 9.7 0.00 0.00 0.00 50 1012.0
20180619055541 21 104 4.8 9.7 0.00 0.00 0.00 50 1012.0
20180619055339 21 113 4.8 9.7 0.00 0.00 0.00 50 1011.9
20180619055138 21 98 6.4 6.4 0.00 0.00 0.00 49 1011.9
20180619054936 21 109 4.8 6.4 0.00 0.00 0.00 49 1011.9
20180619054735 21 98 4.8 4.8 0.00 0.00 0.00 48 1012.0
20180619054533 21 45 0.0 4.8 0.00 0.00 0.00 48 1012.0
20180619054332 21 11 0.0 4.8 0.00 0.00 0.00 47 1011.9
20180619054130 21 71 3.2 3.2 0.00 0.00 0.00 47 1011.9
20180619053929 21 54 3.2 3.2 0.00 0.00 0.00 47 1011.9
20180619053727 21 39 0.0 0.0 0.00 0.00 0.00 46 1011.8
20180619052921 21 94 0.0 3.2 0.00 0.00 0.00 47 1011.7
20180619052719 21 94 0.0 4.8 0.00 0.00 0.00 47 1011.7
20180619052518 21 53 0.0 4.8 0.00 0.00 0.00 47 1011.7
20180619052317 21 56 1.6 4.8 0.00 0.00 0.00 48 1011.7
20180619052115 21 47 1.6 4.8 0.00 0.00 0.00 48 1011.6
20180619051913 21 50 3.2 4.8 0.00 0.00 0.00 47 1011.7
20180619051711 21 45 3.2 6.4 0.00 0.00 0.00 47 1011.6
20180619051510 21 47 3.2 6.4 0.00 0.00 0.00 47 1011.6
20180619051308 21 50 3.2 6.4 0.00 0.00 0.00 47 1011.7
20180619051107 21 78 3.2 8.0 0.00 0.00 0.00 47 1011.6
20180619050905 21 36 3.2 8.0 0.00 0.00 0.00 47 1011.6
20180619050704 21 57 4.8 8.0 0.00 0.00 0.00 47 1011.6
20180619050502 21 67 6.4 8.0 0.00 0.00 0.00 47 1011.6
20180619050301 21 70 4.8 8.0 0.00 0.00 0.00 47 1011.6
20180619050059 22 85 6.4 8.0 0.00 0.00 0.00 46 1011.6
20180619045858 21 75 3.2 8.0 0.00 0.00 0.00 45 1011.5
20180619045656 21 101 6.4 6.4 0.00 0.00 0.00 45 1011.5
20180619045455 21 104 4.8 6.4 0.00 0.00 0.00 45 1011.5
20180619045253 21 104 4.8 6.4 0.00 0.00 0.00 45 1011.5
20180619045051 21 125 4.8 9.7 0.00 0.00 0.00 46 1011.5
20180619044850 21 122 4.8 9.7 0.00 0.00 0.00 46 1011.4
20180619044648 21 126 4.8 8.0 0.00 0.00 0.00 48 1011.4
20180619044446 21 84 6.4 8.0 0.00 0.00 0.00 49 1011.4
20180619044245 21 71 4.8 8.0 0.00 0.00 0.00 49 1011.4
20180619044043 21 91 6.4 6.4 0.00 0.00 0.00 48 1011.3
20180619043842 21 68 6.4 6.4 0.00 0.00 0.00 48 1011.3
20180619043640 21 67 6.4 6.4 0.00 0.00 0.00 48 1011.3
20180619043439 21 71 4.8 6.4 0.00 0.00 0.00 48 1011.3
20180619043237 21 99 4.8 6.4 0.00 0.00 0.00 47 1011.3
20180619043036 21 43 4.8 8.0 0.00 0.00 0.00 47 1011.2
20180619042834 21 82 6.4 8.0 0.00 0.00 0.00 46 1011.2
20180619042633 21 99 6.4 8.0 0.00 0.00 0.00 47 1011.2
20180619042431 21 23 3.2 8.0 0.00 0.00 0.00 47 1011.3
20180619042230 21 71 4.8 8.0 0.00 0.00 0.00 47 1011.2
20180619042028 22 88 4.8 8.0 0.00 0.00 0.00 47 1011.2
20180619041826 22 88 6.4 8.0 0.00 0.00 0.00 46 1011.1
20180619041625 22 119 4.8 8.0 0.00 0.00 0.00 46 1011.1
20180619041424 22 157 3.2 8.0 0.00 0.00 0.00 46 1011.1
20180619041221 22 130 3.2 8.0 0.00 0.00 0.00 46 1011.0
20180619041020 22 115 3.2 8.0 0.00 0.00 0.00 46 1011.0
20180619040818 22 112 4.8 8.0 0.00 0.00 0.00 46 1011.0
20180619040617 22 112 4.8 6.4 0.00 0.00 0.00 46 1011.0
20180619040415 22 158 4.8 6.4 0.00 0.00 0.00 47 1010.9
20180619040214 22 120 3.2 9.7 0.00 0.00 0.00 46 1011.0
20180619040012 22 105 4.8 9.7 0.00 0.00 0.00 46 1010.9
20180619035811 22 127 4.8 9.7 0.00 0.00 0.00 46 1010.9
20180619035610 22 122 3.2 8.0 0.00 0.00 0.00 46 1010.8
20180619035408 22 116 4.8 8.0 0.00 0.00 0.00 46 1010.8
20180619035206 22 122 6.4 6.4 0.00 0.00 0.00 46 1010.8
20180619035005 22 118 3.2 6.4 0.00 0.00 0.00 46 1010.8
20180619034803 22 105 4.8 6.4 0.00 0.00 0.00 46 1010.7
20180619034602 22 126 4.8 8.0 0.00 0.00 0.00 46 1010.8
20180619034400 22 139 4.8 8.0 0.00 0.00 0.00 46 1010.8
20180619034158 22 140 3.2 6.4 0.00 0.00 0.00 46 1010.7
20180619033956 22 140 4.8 6.4 0.00 0.00 0.00 47 1010.8
20180619033754 22 149 4.8 6.4 0.00 0.00 0.00 47 1010.8
20180619033552 22 144 3.2 9.7 0.00 0.00 0.00 46 1010.8
20180619033351 22 150 4.8 9.7 0.00 0.00 0.00 47 1010.7
20180619033149 22 143 4.8 9.7 0.00 0.00 0.00 47 1010.8
20180619032948 22 147 9.7 9.7 0.00 0.00 0.00 47 1010.7
20180619032747 22 136 4.8 9.7 0.00 0.00 0.00 47 1010.7
20180619032545 22 168 3.2 8.0 0.00 0.00 0.00 47 1010.7
20180619032343 22 137 3.2 8.0 0.00 0.00 0.00 47 1010.8
20180619032142 23 165 4.8 8.0 0.00 0.00 0.00 47 1010.7
20180619031940 23 120 6.4 8.0 0.00 0.00 0.00 47 1010.7
20180619031739 23 122 4.8 8.0 0.00 0.00 0.00 46 1010.8
20180619031537 23 163 3.2 8.0 0.00 0.00 0.00 46 1010.7
20180619031336 23 165 6.4 8.0 0.00 0.00 0.00 46 1010.7
20180619031134 23 154 4.8 9.7 0.00 0.00 0.00 46 1010.7
20180619030932 23 154 4.8 9.7 0.00 0.00 0.00 46 1010.6
20180619030731 23 139 3.2 6.4 0.00 0.00 0.00 46 1010.6
20180619030529 23 151 3.2 6.4 0.00 0.00 0.00 46 1010.5
20180619030328 23 150 4.8 6.4 0.00 0.00 0.00 46 1010.5
20180619030128 23 137 3.2 9.7 0.00 0.00 0.00 46 1010.4
20180619025924 23 126 4.8 9.7 0.00 0.00 0.00 46 1010.4
20180619025723 23 199 4.8 9.7 0.00 0.00 0.00 46 1010.4
20180619025521 23 133 4.8 9.7 0.00 0.00 0.00 46 1010.5
20180619025320 23 142 4.8 9.7 0.00 0.00 0.00 46 1010.4
20180619025118 23 156 4.8 9.7 0.00 0.00 0.00 46 1010.4
20180619024917 23 147 3.2 9.7 0.00 0.00 0.00 47 1010.4
20180619024715 23 139 3.2 6.4 0.00 0.00 0.00 47 1010.5
20180619024514 23 133 6.4 6.4 0.00 0.00 0.00 47 1010.4
20180619024312 23 160 6.4 6.4 0.00 0.00 0.00 47 1010.5
20180619024111 23 146 4.8 9.7 0.00 0.00 0.00 46 1010.4
20180619023909 23 146 3.2 9.7 0.00 0.00 0.00 46 1010.4
20180619023707 23 140 4.8 9.7 0.00 0.00 0.00 46 1010.4
20180619023506 22 154 6.4 9.7 0.00 0.00 0.00 46 1010.4
20180619023304 23 194 4.8 9.7 0.00 0.00 0.00 46 1010.4
20180619023103 23 177 6.4 8.0 0.00 0.00 0.00 48 1010.4
20180619022901 23 195 6.4 8.0 0.00 0.00 0.00 49 1010.4
20180619022659 23 180 6.4 9.7 0.00 0.00 0.00 49 1010.3
20180619022458 23 185 4.8 9.7 0.00 0.00 0.00 49 1010.3
20180619022256 23 178 6.4 9.7 0.00 0.00 0.00 48 1010.3
20180619022055 23 175 4.8 6.4 0.00 0.00 0.00 48 1010.3
20180619021853 23 140 4.8 6.4 0.00 0.00 0.00 48 1010.3
20180619021652 23 136 6.4 9.7 0.00 0.00 0.00 49 1010.3
20180619021450 23 149 4.8 9.7 0.00 0.00 0.00 49 1010.3
20180619021249 23 170 3.2 9.7 0.00 0.00 0.00 48 1010.3
20180619021047 24 182 8.0 11.3 0.00 0.00 0.00 47 1010.3
20180619020845 25 215 6.4 11.3 0.00 0.00 0.00 45 1010.2
20180619020643 25 192 6.4 0.0 0.00 0.00 0.00 43 1010.2
20180619020441 25 219 4.8 0.0 0.00 0.00 0.00 41 1010.3
20180619020240 25 189 0.0 0.0 0.00 0.00 0.00 41 1010.2
20180619020038 25 236 0.0 1.6 0.00 0.00 0.00 41 1010.1
20180619015837 25 236 0.0 1.6 0.00 0.00 0.00 42 1010.2
20180619015635 25 236 0.0 4.8 0.00 0.00 0.00 42 1010.2
20180619015434 25 236 0.0 4.8 0.00 0.00 0.00 42 1010.1
20180619015232 25 220 0.0 6.4 0.00 0.00 0.00 42 1010.2
20180619015030 25 246 1.6 6.4 0.00 0.00 0.00 42 1010.2
20180619014829 25 212 4.8 6.4 0.00 0.00 0.00 41 1010.2
20180619014627 25 215 1.6 1.6 0.00 0.00 0.00 41 1010.2
20180619014426 26 187 3.2 1.6 0.00 0.00 0.00 41 1010.2
20180619014224 26 187 0.0 0.0 0.00 0.00 0.00 41 1010.2
20180619014023 26 182 1.6 0.0 0.00 0.00 0.00 40 1010.2
20180619013821 26 225 0.0 0.0 0.00 0.00 0.00 38 1010.1
20180619013620 26 225 0.0 0.0 0.00 0.00 0.00 38 1010.0
20180619013418 26 225 0.0 0.0 0.00 0.00 0.00 40 1010.1
20180619013217 25 225 0.0 4.8 0.00 0.00 0.00 42 1010.0
20180619013015 25 225 0.0 4.8 0.00 0.00 0.00 42 1010.1
20180619012813 25 225 0.0 4.8 0.00 0.00 0.00 42 1010.0
20180619012612 25 216 0.0 6.4 0.00 0.00 0.00 42 1010.1
20180619012410 25 210 1.6 6.4 0.00 0.00 0.00 42 1010.0
20180619012208 25 180 0.0 6.4 0.00 0.00 0.00 42 1010.1
20180619012007 25 206 1.6 6.4 0.00 0.00 0.00 41 1010.0
20180619011805 25 196 4.8 6.4 0.00 0.00 0.00 41 1010.1
20180619011604 26 165 3.2 3.2 0.00 0.00 0.00 41 1010.0
20180619011402 26 174 1.6 3.2 0.00 0.00 0.00 41 1010.0
20180619011201 26 217 0.0 8.0 0.00 0.00 0.00 41 1010.0
20180619010959 25 223 1.6 8.0 0.00 0.00 0.00 40 1010.0
20180619010758 25 180 0.0 8.0 0.00 0.00 0.00 39 1010.0
20180619010556 25 198 4.8 11.3 0.00 0.00 0.00 40 1010.0
20180619010355 25 184 6.4 11.3 0.00 0.00 0.00 41 1010.1
20180619010153 25 182 4.8 14.5 0.00 0.00 0.00 41 1010.1
20180619005952 25 194 6.4 14.5 0.00 0.00 0.00 41 1010.2
20180619005750 26 187 9.7 14.5 0.00 0.00 0.00 41 1010.2
20180619005548 26 168 8.0 6.4 0.00 0.00 0.00 41 1010.1
20180619005347 26 161 4.8 6.4 0.00 0.00 0.00 41 1010.1
20180619005145 26 196 3.2 9.7 0.00 0.00 0.00 40 1010.1
20180619004944 26 215 1.6 9.7 0.00 0.00 0.00 40 1010.1
20180619004742 26 189 0.0 9.7 0.00 0.00 0.00 39 1010.1
20180619004540 26 215 1.6 9.7 0.00 0.00 0.00 39 1010.1
20180619004339 26 196 6.4 9.7 0.00 0.00 0.00 37 1010.1
20180619004137 26 160 8.0 1.6 0.00 0.00 0.00 34 1010.1
20180619003936 26 146 0.0 1.6 0.00 0.00 0.00 33 1010.1
20180619003734 26 116 0.0 6.4 0.00 0.00 0.00 32 1010.0
20180619003533 27 116 0.0 6.4 0.00 0.00 0.00 32 1009.9
20180619003331 26 82 1.6 6.4 0.00 0.00 0.00 32 1009.9
20180619003130 26 63 0.0 6.4 0.00 0.00 0.00 34 1009.9
20180619002928 26 101 0.0 6.4 0.00 0.00 0.00 37 1010.0
20180619002727 26 140 1.6 6.4 0.00 0.00 0.00 40 1010.0
20180619002525 26 147 3.2 6.4 0.00 0.00 0.00 39 1010.0
20180619002324 26 181 4.8 6.4 0.00 0.00 0.00 38 1010.0
20180619002122 26 165 3.2 0.0 0.00 0.00 0.00 38 1010.0
20180619001920 26 320 0.0 0.0 0.00 0.00 0.00 37 1009.9
20180619001719 26 320 0.0 0.0 0.00 0.00 0.00 37 1009.9
20180619001517 27 320 0.0 0.0 0.00 0.00 0.00 37 1009.9
20180619001315 27 320 0.0 0.0 0.00 0.00 0.00 37 1009.9
20180619001114 26 320 0.0 0.0 0.00 0.00 0.00 36 1009.9
20180619000912 27 320 0.0 0.0 0.00 0.00 0.00 36 1009.9
20180619000711 27 320 0.0 0.0 0.00 0.00 0.00 36 1009.9
20180619000510 27 320 0.0 0.0 0.00 0.00 0.00 36 1009.9
20180619000308 27 320 0.0 0.0 0.00 0.00 0.00 36 1009.9
20180619000106 27 320 0.0 3.2 0.00 0.00 0.00 36 1009.9
20180618235905 27 320 0.0 3.2 0.00 0.00 0.00 36 1009.9
20180618235703 27 284 1.6 0.0 0.00 0.00 0.00 35 1009.9
20180618235503 27 97 0.0 0.0 0.00 0.00 0.00 35 1009.9
20180618235300 27 97 0.0 0.0 0.00 0.00 0.00 36 1010.0
20180618235059 27 97 0.0 0.0 0.00 0.00 0.00 36 1010.0
20180618234857 27 97 0.0 0.0 0.00 0.00 0.00 36 1010.0
20180618234655 27 97 0.0 1.6 0.00 0.00 0.00 36 1010.1
20180618234454 27 97 0.0 1.6 0.00 0.00 0.00 36 1010.0
20180618234252 27 97 0.0 1.6 0.00 0.00 0.00 36 1010.0
20180618234051 27 97 0.0 4.8 0.00 0.00 0.00 36 1010.1